Regional Weather Roundup
Issued by NWS

Home | Current Version | Previous Version | Text Only | Print | Product List | Glossary Off
Versions: 1 2 3 4 5 6 7 8 9 10 11 12 13 14 15 16 17 18 19 20 21 22 23 24 25 26 27 28 29 30 31 32 33 34 35 36 37 38 39 40 41 42 43 44 45 46 47 48 49 50

000
ASUS43 KMPX 260501
RWRMN
WEATHER ROUNDUP FOR MINNESOTA
NATIONAL WEATHER SERVICE TWIN CITIES/CHANHASSEN MN
1200 AM CDT MON JUN 26 2017


NOTE: "FAIR" INDICATES FEW OR NO CLOUDS BELOW 12,000 FEET WITH NO
SIGNIFICANT WEATHER AND/OR OBSTRUCTIONS TO VISIBILITY. N/A MEANS
CURRENT SKY AND/OR WEATHER CONDITIONS ARE NOT AVAILABLE.

MNZ060>063-068>070-260600-
   Twin Cities Metro

CITY           SKY/WX    TMP DP  RH WIND       PRES   REMARKS
TWIN CITIES    PTCLDY    59  44  57 N7        30.13S
ST PAUL        CLEAR     56  43  61 N6        30.14R
CRYSTAL        MOCLDY    56  41  57 N5        30.12S
BLAINE         PTCLDY    54  45  71 NW3       30.13S
LAKEVILLE      PTCLDY    54  46  76 W3        30.13S
EDEN PRAIRIE   CLEAR     58  46  64 W7        30.12S
SOUTH ST PAUL  CLEAR     58  42  56 N5        30.13R
LAKE ELMO      FAIR      54  45  71 CALM      30.14R
$$
MNZ001>005-007-008-013>017-022>024-027-028-260600-
   Northwest Minnesota

CITY           SKY/WX    TMP DP  RH WIND       PRES   REMARKS
BEMIDJI        CLEAR     42  40  93 W5        30.17R
HALLOCK        CLEAR     46  43  87 CALM      30.20R
ROSEAU         CLEAR     48  45  87 W7        30.18S
WARROAD        CLEAR     48  45  87 W5        30.17S
CROOKSTON      PTCLDY    46  43  87 NW3       30.21S
FOSSTON        CLEAR     43  39  87 CALM      30.20R
DETROIT LAKES  CLEAR     50  45  81 N5        30.20S
MOORHEAD       CLEAR     48  39  71 CALM      30.21S
PARK RAPIDS    CLEAR     46  40  79 NW5       30.17R
MAHNOMEN       FAIR      47  44  86 NW3       30.19S
$$
MNZ006-009>011-018-025>026-260600-
   North Central Minnesota

CITY           SKY/WX    TMP DP  RH WIND       PRES   REMARKS
BAUDETTE       CLEAR     47  44  90 W7        30.15S
FLAG ISLAND    CLEAR     52  46  82 NW9       30.14S
INTL FALLS     PTCLDY    45  43  93 W3        30.13S
WASKISH        CLEAR     45  43  93 CALM      30.16S FOG
BIG FORK         N/A     43  41  93 CALM      30.14S FOG
LONGVILLE      PTCLDY    46  45  93 CALM      30.15S
GRAND RAPIDS   CLEAR     45  45 100 CALM      30.15S
CRANE LAKE     CLOUDY    43  43 100 CALM      30.13S
ORR            PTCLDY    45  43  93 CALM      30.10S
COOK           PTCLDY    43  41  93 CALM      30.13S
WALKER         FAIR      44  42  93 NW6       30.16S
$$
MNZ012-019>021-037-260600-
   Northeast Minnesota

CITY           SKY/WX    TMP DP  RH WIND       PRES   REMARKS
DULUTH         CLEAR     45  43  93 NW5       30.10S
ELY            DRIZZLE   46  45  93 CALM      30.11S
HIBBING        CLEAR     40  40 100 NW3       30.12S
EVELETH        CLEAR     44  40  86 CALM      30.12S
DULUTH HARBOR  CLEAR     54  45  71 NW10      30.11S
TWO HARBORS    CLEAR     48  45  87 N3        30.08S
SILVER BAY     PTCLDY    48  45  87 N3        30.07S
GRAND MARAIS     N/A     49  47  93 N9G22     30.04R
G MARAIS ARPRT RAIN      43  39  87 N10G18    30.06R
$$
MNZ029>031-032-039>041-046>048-054>057-064-260600-
   West Central Minnesota

CITY           SKY/WX    TMP DP  RH WIND       PRES   REMARKS
FERGUS FALLS   CLEAR     52  43  71 N3        30.18R
WHEATON        PTCLDY    52  48  87 CALM      30.22R
MORRIS         CLEAR     52  50  93 NW6       30.17S
ALEXANDRIA     CLEAR     52  44  74 NW6       30.18S
ELBOW LAKE     FAIR      52  48  84 W3        30.19S
WADENA         CLEAR     46  43  87 NW5       30.17S
GLENWOOD       PTCLDY    52  46  82 NW7       30.18R
APPLETON       PTCLDY    54  46  76 NW5       30.18S
BENSON         CLEAR     52  46  82 N5        30.19S
ORTONVILLE     CLEAR     55  46  71 NW7       30.18S
MADISON        CLEAR     54  48  82 W5        30.18F
WILLMAR        FAIR      55  50  82 W3        30.18S
$$
MNZ033>034-036-042>043-049>051-058-059-260600-
   Central Minnesota

CITY           SKY/WX    TMP DP  RH WIND       PRES   REMARKS
ST CLOUD       CLEAR     49  44  83 NW3       30.15S
SAUK CENTRE    MOCLDY    52  44  74 CALM      30.17S
PAYNESVILLE    CLEAR     49  45  83 W3        30.17R
AITKIN         FOG       43  39  87 CALM      30.13S VSB 1
PINE RIVER     CLEAR     52  45  76 NW3       30.18S
BRAINERD       CLEAR     51  43  74 NW5       30.15S
STAPLES        CLEAR     48  43  81 NW3       30.16S
LONG PRAIRIE   FAIR      50  43  76 W3        30.17S
LITTLE FALLS   CLEAR     45  43  93 CALM      30.16S
LITCHFIELD     PTCLDY    57  48  72 W8        30.16S
BUFFALO        CLEAR     55  46  69 NW3       30.16R
MAPLE LAKE     PTCLDY    53  47  81 N5        30.16R
HUTCHINSON     CLEAR     55  49  80 W6        30.16F
$$
MNZ037-044-045-052-053-260600-
   East Central Minnesota

CITY           SKY/WX    TMP DP  RH WIND       PRES   REMARKS
PRINCETON      CLEAR     46  43  87 CALM      30.15S
MORA           CLEAR     48  43  81 CALM      30.15S
CAMBRIDGE      CLEAR     52  41  66 CALM      30.12S
RUSH CITY      MOCLDY    48  43  81 N3        30.13S
MOOSE LAKE     MOCLDY    46  43  87 NW5       30.11S
HINCKLEY       FAIR      45  45 100 CALM      30.13S
CLOQUET        CLEAR     45  41  87 CALM      30.12S
MCGREGOR       PTCLDY    48  43  81 NW3       30.14S
$$
MNZ071>073-080-081-089-090-097-098-260600-
   Southwest Minnesota

CITY           SKY/WX    TMP DP  RH WIND       PRES   REMARKS
MONTEVIDEO     CLEAR     54  46  76 NW3       30.18S
GRANITE FALLS  PTCLDY    54  50  85 W3        30.19S
CANBY          CLEAR     50  47  87 CALM      30.20S
MARSHALL       MOCLDY    53  48  83 NW7       30.19S
REDWOOD FALLS  MOCLDY    56  48  74 W3        30.17F
OLIVIA         PTCLDY    54  50  87 CALM      30.16S
PIPESTONE      MOCLDY    57  48  72 CALM      30.21S
WINDOM         PTCLDY    55  48  76 W5        30.19S
WORTHINGTON    LGT RAIN  54  50  86 NW8       30.23R
JACKSON        CLOUDY    54  50  87 CALM      30.19F
TRACY          MOCLDY    57  50  77 W5        30.20R
SLAYTON        CLOUDY    54  49  83 NW8       30.21R
$$
MNZ065>067-074>077-082>085-091>093-260600-
   South Central Minnesota

CITY           SKY/WX    TMP DP  RH WIND       PRES   REMARKS
MANKATO        LGT RAIN  57  48  72 NW7       30.16S
NEW ULM        CLEAR     54  45  71 NW5       30.16F
ST JAMES       PTCLDY    55  46  71 W6        30.18S
FAIRMONT       CLOUDY    58  47  66 W8        30.18S
GLENCOE        CLEAR     58  50  76 W5        30.14F
FARIBAULT      MOCLDY    57  46  67 W6        30.14S
OWATONNA       MOCLDY    54  46  76 W5        30.15S
WASECA         CLOUDY    55  46  71 W6        30.17R
ALBERT LEA     CLEAR     55  45  67 CALM      30.16S
$$
MNZ078>079-086>088-094>096-260600-
   Southeast Minnesota

CITY           SKY/WX    TMP DP  RH WIND       PRES   REMARKS
ROCHESTER      PTCLDY    52  44  74 W8        30.14F
RED WING       PTCLDY    55  43  62 W3        30.11S
STANTON        PTCLDY    55  45  69 W3        30.12S
DODGE CENTER   PTCLDY    54  43  66 W6        30.14S
WINONA         CLEAR     54  50  87 NW3       30.12S
AUSTIN         PTCLDY    54  45  71 SW3       30.14F
PRESTON        MOCLDY    54  43  66 W8        30.14F
$$
ABBREVIATIONS USED IN REMARKS
   TC - TEMPERATURES IN CELSIUS
  WCI - WIND CHILL INDEX
   HX - HEAT INDEX
  VSB - VISIBILITY
$$



USA.gov is the U.S. government's official web portal to all federal, state and local government web resources and services.